Greenwood, MS

8:38 AM CDT on June 28, 2017 (GMT -0500)
Greenwood-Leflore

Weather History for KGWO - January, 2014

Change the Weather History Date:

Friday, January 10, 2014

  Actual Average Record
Temperature  
Mean Temperature 53 °F 43 °F  
Max Temperature 63 °F 53 °F 78 °F (1949)
Min Temperature 42 °F 33 °F 4 °F (1962)
Degree Days  
Heating Degree Days 12 22  
Month to date heating degree days 286 220  
Since 1 July heating degree days 1497 1286  
Cooling Degree Days 0 0  
Month to date cooling degree days 0 0  
Year to date cooling degree days 0 0  
Growing Degree Days 2 (Base 50)    
Moisture  
Dew Point 51 °F    
Average Humidity 77    
Maximum Humidity 93    
Minimum Humidity 60    
Precipitation  
Precipitation 0.36 in 0.15 in 1.70 in (1975)
Month to date precipitation 0.74 1.46  
Year to date precipitation 0.74 1.46  
Sea Level Pressure  
Sea Level Pressure 29.93 in    
Wind  
Wind Speed 13 mph (SSE)    
Max Wind Speed 28 mph    
Max Gust Speed 35 mph    
Visibility 9 miles    
Events Rain    
T = Trace of Precipitation, MM = Missing Value Source: NWS Daily Summary

Daily Weather History Graph

Daily Weather History Graph

Search for Another Location

Airport or City:

Trip Planner

Search our weather history database for the weather conditions in past years. The results will help you decide how hot, cold, wet, or windy it might be!

Date:

Astronomy

Jan. 10, 2014 Rise Set
Actual Time 7:05 AM CST 5:10 PM CST
Civil Twilight 6:37 AM CST 5:38 PM CST
Nautical Twilight 6:07 AM CST 6:08 PM CST
Astronomical Twilight 5:37 AM CST 6:38 PM CST
Moon 1:11 PM CST (1/10) 2:17 AM CST (1/10)
Length of Visible Light 11h 00m
Length of Day
10h 05m
Waxing Gibbous, 75% of the Moon is Illuminated
Jan 10
Waxing Gibbous
Jan 15
Full
Jan 23
Last Quarter
Jan 30
New
Feb 6
First Quarter

Hourly Weather History & Observations

Time (CST) Temp. Windchill Dew Point Humidity Pressure Visibility Wind Dir Wind Speed Gust Speed Precip Events Conditions
12:53 AM 51.1 °F - 39.9 °F 66% 30.18 in 10.0 mi SSE 6.9 mph - N/A   Overcast
1:53 AM 50.0 °F - 39.9 °F 68% 30.18 in 10.0 mi SSE 12.7 mph - N/A   Overcast
2:53 AM 48.9 °F - 41.0 °F 74% 30.17 in 10.0 mi SSE 9.2 mph - N/A   Overcast
3:53 AM 48.0 °F - 39.9 °F 74% 30.15 in 10.0 mi SE 9.2 mph - N/A   Overcast
4:53 AM 46.9 °F - 39.9 °F 77% 30.15 in 10.0 mi SSE 6.9 mph - N/A   Overcast
5:53 AM 43.0 °F 40.3 °F 39.0 °F 86% 30.14 in 10.0 mi SE 4.6 mph - N/A   Clear
6:44 AM 42.1 °F 37.7 °F 39.9 °F 92% 30.13 in 10.0 mi SE 6.9 mph - N/A   Mostly Cloudy
6:53 AM 43.0 °F 38.2 °F 39.9 °F 89% 30.14 in 10.0 mi SE 8.1 mph - N/A   Mostly Cloudy
7:53 AM 45.0 °F 41.8 °F 42.1 °F 90% 30.13 in 10.0 mi SE 5.8 mph - N/A   Mostly Cloudy
8:10 AM 46.0 °F 41.9 °F 43.0 °F 89% 30.13 in 10.0 mi SE 8.1 mph - N/A   Scattered Clouds
8:53 AM 46.9 °F - 44.1 °F 90% 30.14 in 10.0 mi SE 6.9 mph - N/A   Clear
9:53 AM 52.0 °F - 45.0 °F 77% 30.11 in 10.0 mi SSE 10.4 mph - N/A   Clear
10:53 AM 55.9 °F - 46.0 °F 69% 30.06 in 10.0 mi SSE 9.2 mph - N/A   Clear
11:53 AM 60.1 °F - 46.9 °F 62% 30.00 in 10.0 mi SSE 17.3 mph - N/A   Clear
12:53 PM 61.0 °F - 48.0 °F 62% 29.97 in 10.0 mi SSE 15.0 mph - N/A   Scattered Clouds
1:53 PM 62.1 °F - 48.9 °F 62% 29.94 in 10.0 mi South 16.1 mph - N/A   Overcast
2:53 PM 61.0 °F - 50.0 °F 67% 29.90 in 10.0 mi SSE 12.7 mph - N/A   Overcast
3:53 PM 60.1 °F - 51.1 °F 72% 29.87 in 10.0 mi SSE 15.0 mph - N/A   Overcast
4:53 PM 59.0 °F - 51.1 °F 75% 29.86 in 10.0 mi SSE 11.5 mph - N/A   Scattered Clouds
5:53 PM 59.0 °F - 52.0 °F 78% 29.84 in 10.0 mi South 16.1 mph - N/A   Mostly Cloudy
6:53 PM 59.0 °F - 53.1 °F 81% 29.84 in 10.0 mi SSE 15.0 mph - N/A   Overcast
7:40 PM 60.1 °F - 55.0 °F 83% 29.81 in 10.0 mi South 23.0 mph 31.1 mph N/A   Overcast
7:53 PM 61.0 °F - 55.0 °F 81% 29.80 in 10.0 mi SSE 25.3 mph 34.5 mph N/A   Overcast
8:06 PM 61.0 °F - 55.9 °F 83% 29.81 in 10.0 mi South 19.6 mph 31.1 mph N/A   Overcast
8:53 PM 62.1 °F - 57.0 °F 84% 29.79 in 10.0 mi South 24.2 mph 32.2 mph N/A   Overcast
9:30 PM 63.0 °F - 57.9 °F 84% 29.79 in 10.0 mi South 25.3 mph 31.1 mph N/A   Overcast
9:53 PM 63.0 °F - 57.9 °F 84% 29.77 in 10.0 mi South 21.9 mph 33.4 mph N/A   Overcast
10:33 PM 63.0 °F - 59.0 °F 87% 29.75 in 10.0 mi South 21.9 mph - N/A   Overcast
10:53 PM 63.0 °F - 59.0 °F 87% 29.75 in 10.0 mi South 17.3 mph - N/A   Overcast
11:17 PM 62.1 °F - 60.1 °F 93% 29.75 in 4.0 mi South 16.1 mph - 0.04 in Rain Rain
11:25 PM 62.1 °F - 60.1 °F 93% 29.75 in 2.5 mi SSW 11.5 mph - 0.09 in Rain Rain
11:33 PM 62.1 °F - 60.1 °F 93% 29.77 in 4.0 mi South 23.0 mph 27.6 mph 0.11 in Rain Rain
11:39 PM 62.1 °F - 61.0 °F 96% 29.75 in 2.0 mi SSW 16.1 mph - 0.18 in Rain Heavy Rain
11:41 PM 62.1 °F - 61.0 °F 96% 29.75 in 1.8 mi SSW 13.8 mph - 0.21 in Rain Heavy Rain
11:53 PM 62.1 °F - 61.0 °F 96% 29.74 in 1.8 mi SSW 16.1 mph 23.0 mph 0.34 in Rain Heavy Rain
11:59 PM 62.1 °F - 61.0 °F 96% 29.74 in 3.0 mi SSW 12.7 mph - 0.02 in Rain Rain